Overview Statistics Trail Chart Weather Telemetry Raw packets
 

This is the latest recevied weather packets stored in our database for station/object N9BLE. If no packets are shown the sender has not sent any weather packets the latest 10 day(s).

<< 88 89 90 91 92 93 94 >>
Time Temp. Humidity Pressure Rain* Wind** Luminosity Snow
1777387554 11.67° C 76% 1016.8 hPa 0 mm - 374 W/m² -
1777387250 11.67° C 77% 1016.8 hPa 0 mm - 180 W/m² -
1777386945 11.67° C 78% 1016.9 hPa 0 mm - 187 W/m² -
1777386643 11.11° C 79% 1016.8 hPa 0 mm - 178 W/m² -
1777386340 11.11° C 79% 1016.9 hPa 0 mm - 172 W/m² -
1777386037 11.11° C 79% 1017 hPa 0 mm - 166 W/m² -
1777385733 11.67° C 79% 1016.8 hPa 0 mm - 165 W/m² -
1777385431 11.11° C 79% 1016.8 hPa 0 mm - 200 W/m² -
1777385127 10.56° C 81% 1016.7 hPa 0 mm - 178 W/m² -
1777384823 10° C 81% 1016.8 hPa 0 mm - 100 W/m² -
1777384520 10° C 81% 1016.9 hPa 0 mm - 95 W/m² -
1777384215 10° C 82% 1016.7 hPa 0 mm - 76 W/m² -
1777383911 10° C 82% 1016.6 hPa 0 mm - 79 W/m² -
1777383607 10° C 82% 1016.6 hPa 0 mm - 65 W/m² -
1777383304 10° C 83% 1016.6 hPa 0 mm - 66 W/m² -
1777383000 10° C 83% 1016.5 hPa 0 mm - 60 W/m² -
1777382696 10° C 83% 1016.4 hPa 0 mm - 68 W/m² -
1777382397 10° C 83% 1016.1 hPa 0 mm - 67 W/m² -
1777382089 10° C 83% 1015.9 hPa 0 mm - 65 W/m² -
1777381785 10° C 83% 1016 hPa 0 mm - 61 W/m² -
1777381484 10° C 84% 1015.8 hPa 0 mm - 70 W/m² -
1777381181 10° C 84% 1015.5 hPa 0 mm - 65 W/m² -
1777380878 10° C 84% 1015.3 hPa 0 mm - 58 W/m² -
1777380575 9.44° C 84% 1015.3 hPa 0 mm - 47 W/m² -
1777380271 9.44° C 86% 1015.1 hPa 0 mm - 57 W/m² -

* Rain latest hour (hover to see other rain measurements)
** Current wind speed in m/s (hover to see current wind gust speed)